Flag for Canada Weather past 2 weeks in Quesnel, British Columbia, Canada

Now
61 °F

Passing clouds.


Feels Like: 61 °F
Forecast: 42 / 65 °F
Wind: 10 mph from Southeast

Location: Quesnel Airport

Current Time: Apr 27, 2015 at 2:14:00 PM

Latest Report: Apr 27, 2015 at 1:00 PM


Visibility: 9 mi

Pressure: 30.03 "Hg

Humidity: 42%

Dew point: 37 °F

Location of QuesnelLocation

Historic Weather in Quesnel — Graph

°F

Quesnel temperature yesterday

Maximum temperature yesterday: 61 °F (at 3:00 PM)
Minimum temperature yesterday: 30 °F (at 5:58 AM)
Average temperature yesterday: 46 °F

Past Weeks' High & Low Weather Summary

 TemperatureHumidityPressure
High73 °F (Apr 20, 5:00 PM)100% (Apr 22, 7:00 AM)30.53 "Hg (Apr 22, 7:00 AM)
Low25 °F (Apr 15, 6:00 AM)19% (Apr 14, 2:00 PM)29.61 "Hg (Apr 23, 10:00 PM)
Average45 °F60%30.01 "Hg
* Reported Apr 12 1:00 PM — Apr 27 1:00 PM, Quesnel, Weather by CustomWeather, © 2015

Note: Actual official high and low records may vary slightly from our data, if they occured in-between our weather recording intervals... More about our weather records

Advertising

Quesnel weather history for previous 24 hours

 ConditionsComfort  
Time TempWeatherWind HumidityBarometerVisibility
1:00 PM
Mon, Apr 27
61 °FPassing clouds.10 mph42%30.03 "Hg9 mi
12:00 PM57 °FScattered clouds.10 mph48%30.06 "Hg9 mi
11:00 AM54 °FPartly sunny.5 mph47%30.09 "Hg9 mi
10:00 AM50 °FPartly sunny.7 mph54%30.11 "Hg9 mi
9:00 AM48 °FOvercast.6 mph54%30.13 "Hg9 mi
8:00 AM46 °FOvercast.7 mph57%30.12 "Hg9 mi
7:00 AM43 °FScattered clouds.6 mph66%30.12 "Hg9 mi
6:00 AM41 °FPassing clouds.No wind70%30.12 "Hg9 mi
5:00 AM43 °FPassing clouds.5 mph66%30.11 "Hg9 mi
4:00 AM46 °FPassing clouds.7 mph53%30.09 "Hg9 mi
3:00 AM41 °FClear.2 mph70%30.08 "Hg9 mi
2:00 AM46 °FClear.6 mph53%30.07 "Hg9 mi
1:00 AM48 °FClear.7 mph50%30.05 "Hg9 mi
12:00 AM52 °FPassing clouds.10 mph41%30.04 "Hg9 mi
11:00 PM
Sun, Apr 26
54 °FPartly cloudy.12 mph35%30.01 "Hg9 mi
10:00 PM54 °FPassing clouds.6 mph35%30.02 "Hg9 mi
9:00 PM55 °FPartly sunny.9 mph31%30.01 "Hg9 mi
8:00 PM57 °FOvercast.10 mph29%29.98 "Hg9 mi
7:00 PM59 °FOvercast.14 mph27%29.97 "Hg9 mi
6:00 PM59 °FPartly sunny.14 mph25%29.98 "Hg9 mi
5:00 PM61 °FPartly sunny.17 mph22%29.97 "Hg9 mi
4:00 PM61 °FSunny.17 mph23%29.98 "Hg9 mi
3:00 PM61 °FSunny.15 mph27%29.99 "Hg9 mi
2:00 PM59 °FSunny.14 mph34%30.01 "Hg9 mi
Weather by CustomWeather, © 2015

See weather overviewHow to use our weather pages